Weather History for Morgantown, WV

Change the Weather History Date:

Saturday, December 7, 2013

  Actual Average Record
Temperature  
Mean Temperature 27 °F 37 °F  
Max Temperature 30 °F 45 °F 76 °F (1951)
Min Temperature 23 °F 29 °F 5 °F (1977)
Degree Days  
Heating Degree Days 38 28  
Month to date heating degree days 149 189  
Since 1 July heating degree days 1266 1237  
Cooling Degree Days 0 0  
Month to date cooling degree days 0 0  
Year to date cooling degree days 906 814  
Moisture  
Dew Point 24 °F    
Average Humidity 80    
Maximum Humidity 92    
Minimum Humidity 68    
Precipitation  
Precipitation 0.01 in 0.10 in 1.11 in (2011)
Month to date precipitation 2.20 0.72  
Year to date precipitation 38.74 39.64  
Sea Level Pressure  
Sea Level Pressure 30.43 in    
Wind  
Wind Speed 4 mph (NNW)    
Max Wind Speed 10 mph    
Max Gust Speed 16 mph    
Visibility 9 miles    
Events Snow    
T = Trace of Precipitation, MM = Missing Value Source: NWS Daily Summary

Daily Weather History Graph

Daily Weather History Graph

Search for Another Location

Airport:

Trip Planner

Search our weather history database for the weather conditions in past years. The results will help you decide how hot, cold, wet, or windy it might be!

Date:

Astronomy

Dec. 07, 2013 Rise Set
Actual Time 7:27 AM EST 4:55 PM EST
Civil Twilight 6:57 AM EST 5:25 PM EST
Nautical Twilight 6:23 AM EST 5:59 PM EST
Astronomical Twilight 5:50 AM EST 6:31 PM EST
Moon 11:11 AM EST (12/7) 10:34 PM EST (12/7)
Length of Visible Light 10h 28m
Length of Day
9h 28m
Waxing Crescent, 29% of the Moon is Illuminated
Dec 7
Waxing Crescent
Dec 9
First Quarter
Dec 17
Full
Dec 25
Last Quarter
Jan 1
New

Hourly Weather History & Observations

Time (EST) Temp. Windchill Dew Point Humidity Pressure Visibility Wind Dir Wind Speed Gust Speed Precip Events Conditions
12:34 AM 30.2 °F 21.9 °F 28.4 °F 93% 30.24 in 2.5 mi North 9.2 mph - 0.02 in   Overcast
12:42 AM 30.2 °F 24.3 °F 28.4 °F 93% 30.24 in 4.0 mi North 5.8 mph - 0.02 in   Overcast
12:53 AM 30.0 °F 23.2 °F 28.0 °F 92% 30.28 in 9.0 mi North 6.9 mph - 0.02 in   Overcast
1:10 AM 30.2 °F 25.4 °F 28.4 °F 93% 30.26 in 10.0 mi North 4.6 mph - N/A   Overcast
1:17 AM 30.2 °F 24.3 °F 28.4 °F 93% 30.26 in 10.0 mi North 5.8 mph - N/A   Overcast
1:53 AM 30.0 °F 21.7 °F 28.0 °F 92% 30.30 in 10.0 mi North 9.2 mph - N/A   Overcast
2:09 AM 28.4 °F 22.2 °F 26.6 °F 93% 30.26 in 10.0 mi North 5.8 mph - N/A   Overcast
2:44 AM 30.2 °F 26.7 °F 28.4 °F 93% 30.28 in 10.0 mi Variable 3.5 mph - N/A   Overcast
2:53 AM 28.9 °F 25.2 °F 27.0 °F 92% 30.32 in 10.0 mi NW 3.5 mph - N/A   Overcast
3:53 AM 28.9 °F 23.9 °F 27.0 °F 92% 30.34 in 10.0 mi NW 4.6 mph - N/A   Overcast
4:51 AM 28.4 °F 23.3 °F 26.6 °F 93% 30.32 in 10.0 mi NNW 4.6 mph - N/A   Overcast
4:53 AM 28.9 °F 23.9 °F 26.1 °F 89% 30.37 in 10.0 mi NNW 4.6 mph - N/A   Overcast
4:57 AM 28.4 °F 23.3 °F 26.6 °F 93% 30.33 in 10.0 mi NNW 4.6 mph - N/A   Overcast
5:12 AM 28.4 °F 22.2 °F 26.6 °F 93% 30.33 in 6.0 mi NNW 5.8 mph - N/A   Overcast
5:50 AM 28.4 °F 23.3 °F 26.6 °F 93% 30.36 in 2.0 mi NW 4.6 mph - 0.00 in Snow Light Snow
5:53 AM 28.9 °F 25.2 °F 27.0 °F 92% 30.40 in 2.0 mi NW 3.5 mph - 0.00 in Snow Light Snow
5:59 AM 28.4 °F - 26.6 °F 93% 30.36 in 3.0 mi Calm Calm - 0.00 in Snow Light Snow
6:23 AM 28.4 °F 24.6 °F 26.6 °F 93% 30.37 in 4.0 mi WNW 3.5 mph - 0.00 in   Overcast
6:53 AM 28.9 °F 22.8 °F 25.0 °F 85% 30.43 in 10.0 mi NW 5.8 mph - 0.00 in   Overcast
7:00 AM 28.4 °F 21.2 °F 24.8 °F 86% 30.39 in 10.0 mi NW 6.9 mph - N/A   Overcast
7:53 AM 28.0 °F 22.8 °F 24.1 °F 85% 30.47 in 10.0 mi NW 4.6 mph - N/A   Overcast
8:38 AM 28.4 °F 24.6 °F 24.8 °F 86% 30.45 in 10.0 mi NW 3.5 mph - N/A   Overcast
8:53 AM 28.9 °F 25.2 °F 25.0 °F 85% 30.50 in 10.0 mi NW 3.5 mph - N/A   Overcast
9:04 AM 28.4 °F 24.6 °F 24.8 °F 86% 30.45 in 10.0 mi NW 3.5 mph - N/A   Overcast
9:35 AM 28.4 °F 24.6 °F 24.8 °F 86% 30.47 in 10.0 mi Variable 3.5 mph - N/A   Overcast
9:53 AM 28.9 °F - 24.1 °F 82% 30.51 in 10.0 mi Calm Calm - N/A   Overcast
10:17 AM 28.4 °F 22.2 °F 24.8 °F 86% 30.47 in 10.0 mi NW 5.8 mph - N/A   Overcast
10:53 AM 28.9 °F 23.9 °F 24.1 °F 82% 30.52 in 10.0 mi Variable 4.6 mph - N/A   Overcast
11:35 AM 28.4 °F 24.6 °F 24.8 °F 86% 30.47 in 10.0 mi Variable 3.5 mph - N/A   Overcast
11:53 AM 28.9 °F 23.9 °F 23.0 °F 78% 30.51 in 10.0 mi NW 4.6 mph - N/A   Overcast
12:53 PM 28.9 °F 25.2 °F 24.1 °F 82% 30.51 in 10.0 mi NW 3.5 mph - N/A   Overcast
1:53 PM 28.9 °F 25.2 °F 23.0 °F 78% 30.51 in 10.0 mi Variable 3.5 mph - N/A   Overcast
2:53 PM 28.9 °F - 21.9 °F 75% 30.50 in 10.0 mi Calm Calm - N/A   Overcast
3:53 PM 28.0 °F 22.8 °F 19.9 °F 72% 30.51 in 10.0 mi NNW 4.6 mph - N/A   Overcast
4:53 PM 28.0 °F - 19.9 °F 72% 30.54 in 10.0 mi Calm Calm - N/A   Overcast
5:49 PM 26.6 °F - 19.4 °F 74% 30.50 in 10.0 mi Calm Calm - N/A   Scattered Clouds
5:53 PM 27.0 °F 23.0 °F 18.0 °F 69% 30.55 in 10.0 mi WNW 3.5 mph - N/A   Scattered Clouds
6:53 PM 27.0 °F 23.0 °F 18.0 °F 69% 30.57 in 10.0 mi Variable 3.5 mph - N/A   Mostly Cloudy
7:53 PM 26.1 °F - 19.0 °F 75% 30.59 in 10.0 mi Calm Calm - N/A   Partly Cloudy
8:53 PM 25.0 °F 18.1 °F 18.0 °F 75% 30.59 in 10.0 mi North 5.8 mph - N/A   Mostly Cloudy
9:53 PM 24.1 °F 16.0 °F 19.0 °F 81% 30.58 in 10.0 mi North 6.9 mph - N/A   Clear
10:53 PM 24.1 °F 18.2 °F 17.1 °F 75% 30.58 in 10.0 mi North 4.6 mph - N/A   Clear
11:53 PM 23.0 °F 15.8 °F 17.1 °F 78% 30.58 in 10.0 mi North 5.8 mph - N/A   Clear